Regional Weather Roundup
Issued by NWS Tiyan, Guam

Home | Current Version | Previous Version | Text Only | Print | Product List | Glossary On
Versions: 1 2 3 4 5 6 7 8 9 10 11 12 13 14 15 16 17 18 19 20 21 22 23 24 25 26 27 28 29 30 31 32 33 34 35 36 37 38 39 40 41 42 43 44 45 46 47 48 49 50
000
ASGM40 PGUM 030412
RWRGUM
WEATHER ROUNDUP FOR THE MARIANAS
NATIONAL WEATHER SERVICE TIYAN GU
200 PM CHST WED SEP 03 2014

GUZ001>004-030500-
MARIANA ISLANDS-

CITY           SKY/WX    TMP DP  RH WIND       PRES   REMARKS
GUAM AIRPORT   MOSUNNY   84  77  79 S9        29.79F HX  94
ANDERSEN AFB   TSTM      79  77  94 SE9G17    29.81S
ROTA AIRPORT   LGT RAIN  75 N/A N/A SW9       29.82F FOG
TINIAN AP      PTSUNNY   84  75  74 S3        29.79S HX  92
SAIPAN AP      MOSUNNY   84  75  74 SE7       29.81S HX  92

$$



USA.gov is the U.S. government's official web portal to all federal, state and local government web resources and services.